TimePDT,TemperatureF,Dew PointF,Humidity,Sea Level PressureIn,VisibilityMPH,Wind Direction,Wind SpeedMPH,Gust SpeedMPH,PrecipitationIn,Events,Conditions,WindDirDegrees,DateUTC
12:53 AM,46.9,39.9,77,30.32,10.0,Calm,Calm,-,N/A,,Overcast,0,2013-04-21 07:53:00
1:53 AM,46.0,39.9,79,30.31,10.0,Calm,Calm,-,N/A,,Overcast,0,2013-04-21 08:53:00
2:53 AM,44.1,41.0,89,30.30,10.0,Calm,Calm,-,N/A,,Overcast,0,2013-04-21 09:53:00
3:53 AM,43.0,39.9,89,30.28,10.0,Calm,Calm,-,N/A,,Overcast,0,2013-04-21 10:53:00
4:53 AM,43.0,39.0,86,30.29,10.0,Calm,Calm,-,N/A,,Overcast,0,2013-04-21 11:53:00
5:53 AM,43.0,39.0,86,30.30,10.0,Calm,Calm,-,N/A,,Overcast,0,2013-04-21 12:53:00
6:53 AM,44.1,41.0,89,30.29,10.0,Calm,Calm,-,0.00,,Overcast,0,2013-04-21 13:53:00
7:53 AM,46.0,42.1,86,30.29,10.0,Calm,Calm,-,0.00,Rain,Light Rain,0,2013-04-21 14:53:00
8:53 AM,46.9,42.1,83,30.29,10.0,Calm,Calm,-,0.00,,Overcast,0,2013-04-21 15:53:00
9:53 AM,48.9,43.0,80,30.28,10.0,Calm,Calm,-,N/A,,Overcast,0,2013-04-21 16:53:00
10:53 AM,50.0,41.0,71,30.28,10.0,Calm,Calm,-,N/A,,Overcast,0,2013-04-21 17:53:00
11:53 AM,51.1,42.1,71,30.27,10.0,Calm,Calm,-,0.00,,Overcast,0,2013-04-21 18:53:00
12:53 PM,51.1,43.0,74,30.28,10.0,Calm,Calm,-,N/A,,Overcast,0,2013-04-21 19:53:00
1:53 PM,52.0,44.1,74,30.27,10.0,Calm,Calm,-,0.00,,Overcast,0,2013-04-21 20:53:00
2:37 PM,50.0,44.6,82,30.28,2.5,Calm,Calm,-,0.00,Rain,Light Rain,0,2013-04-21 21:37:00
2:53 PM,51.1,46.0,83,30.27,3.0,SE,4.6,-,0.01,Rain,Light Rain,140,2013-04-21 21:53:00
3:38 PM,51.8,46.4,82,30.27,6.0,SE,3.5,-,0.00,,Overcast,140,2013-04-21 22:38:00
3:53 PM,51.1,46.9,86,30.27,4.0,Calm,Calm,-,0.00,,Overcast,0,2013-04-21 22:53:00
4:07 PM,51.8,46.4,82,30.26,4.0,ESE,3.5,-,N/A,,Overcast,120,2013-04-21 23:07:00
4:19 PM,50.0,46.4,87,30.26,1.8,Calm,Calm,-,0.01,Rain,Light Rain,0,2013-04-21 23:19:00
4:34 PM,50.0,48.2,94,30.26,3.0,SE,3.5,-,0.02,Rain,Light Rain,130,2013-04-21 23:34:00
4:53 PM,50.0,46.9,89,30.27,10.0,SE,3.5,-,0.02,,Overcast,130,2013-04-21 23:53:00
5:53 PM,51.1,46.9,86,30.26,10.0,ENE,4.6,-,0.01,,Overcast,60,2013-04-22 00:53:00
6:12 PM,51.8,46.4,82,30.26,10.0,Calm,Calm,-,N/A,,Overcast,0,2013-04-22 01:12:00
6:26 PM,51.8,46.4,82,30.26,8.0,Calm,Calm,-,N/A,,Overcast,0,2013-04-22 01:26:00
6:33 PM,51.8,46.4,82,30.26,8.0,Calm,Calm,-,0.00,,Overcast,0,2013-04-22 01:33:00
6:53 PM,51.1,46.0,83,30.26,10.0,Calm,Calm,-,0.00,,Mostly Cloudy,0,2013-04-22 01:53:00
7:53 PM,51.1,44.1,77,30.27,10.0,NW,5.8,-,N/A,,Overcast,310,2013-04-22 02:53:00
8:53 PM,48.9,41.0,74,30.28,10.0,WNW,3.5,-,N/A,,Partly Cloudy,300,2013-04-22 03:53:00
9:53 PM,46.0,37.9,73,30.30,10.0,Calm,Calm,-,N/A,,Clear,0,2013-04-22 04:53:00
10:53 PM,45.0,37.9,76,30.32,10.0,NW,5.8,-,N/A,,Clear,320,2013-04-22 05:53:00
11:53 PM,43.0,37.0,80,30.33,10.0,NW,4.6,-,N/A,,Clear,310,2013-04-22 06:53:00